This is the latest recevied weather packets stored in our database for station/object KE8WMS. If no packets are shown the sender has not sent any weather packets the latest 1 day(s).
| Time | Temp. | Humidity | Pressure | Rain* | Wind** | Luminosity | Snow |
|---|---|---|---|---|---|---|---|
| 1777978554 | 17.78° C | 68% | 1000.3 hPa | 0 mm | 1.34 m/s, 209° | 14 W/m² | - |
| 1777978250 | 17.22° C | 68% | 1000.2 hPa | 0 mm | 3.13 m/s, 193° | 10 W/m² | - |
| 1777977947 | 17.78° C | 69% | 1000.1 hPa | 0 mm | 1.34 m/s, 226° | 8 W/m² | - |
| 1777977644 | 17.78° C | 69% | 1000 hPa | 0 mm | 0.45 m/s, 223° | 6 W/m² | - |
| 1777977341 | 17.78° C | 68% | 1000 hPa | 0 mm | 2.24 m/s, 221° | 4 W/m² | - |
| 1777977038 | 17.78° C | 68% | 1000.1 hPa | 0 mm | 2.24 m/s, 189° | 3 W/m² | - |
| 1777976735 | 17.78° C | 68% | 1000.1 hPa | 0 mm | 3.58 m/s, 202° | 2 W/m² | - |
| 1777976433 | 18.33° C | 69% | 1000 hPa | 0 mm | 1.34 m/s, 220° | 1 W/m² | - |
| 1777976131 | 18.33° C | 67% | 999.9 hPa | 0 mm | 1.79 m/s, 240° | 0 W/m² | - |
| 1777975827 | 18.33° C | 67% | 1000 hPa | 0 mm | 0.89 m/s, 238° | 0 W/m² | - |
| 1777975524 | 18.33° C | 67% | 999.7 hPa | 0 mm | 1.34 m/s, 218° | 0 W/m² | - |
| 1777975221 | 18.33° C | 67% | 999.6 hPa | 0 mm | 1.79 m/s, 213° | 0 W/m² | - |
| 1777974917 | 18.33° C | 66% | 999.6 hPa | 0 mm | 3.13 m/s, 229° | 0 W/m² | - |
| 1777974614 | 18.33° C | 66% | 999.5 hPa | 0 mm | 1.34 m/s, 218° | 0 W/m² | - |
| 1777974310 | 18.89° C | 66% | 999.1 hPa | 0 mm | 2.24 m/s, 135° | 0 W/m² | - |
| 1777974007 | 18.89° C | 66% | 999.1 hPa | 0 mm | 2.24 m/s, 224° | 0 W/m² | - |
| 1777973703 | 18.89° C | 66% | 999.1 hPa | 0 mm | 3.13 m/s, 214° | 0 W/m² | - |
| 1777973400 | 18.89° C | 66% | 999.1 hPa | 0 mm | 0.89 m/s, 203° | 0 W/m² | - |
| 1777973098 | 18.89° C | 65% | 999.1 hPa | 0 mm | 0.89 m/s, 195° | 0 W/m² | - |
| 1777972795 | 18.89° C | 65% | 999 hPa | 0 mm | 1.34 m/s, 214° | 0 W/m² | - |
| 1777972493 | 18.89° C | 65% | 998.7 hPa | 0 mm | 1.34 m/s, 228° | 0 W/m² | - |
| 1777972191 | 18.89° C | 64% | 999.1 hPa | 0 mm | 2.24 m/s, 231° | 0 W/m² | - |
| 1777971889 | 18.89° C | 63% | 998.6 hPa | 0 mm | 1.34 m/s, 193° | 0 W/m² | - |
| 1777971586 | 19.44° C | 62% | 998.6 hPa | 0 mm | 0.89 m/s, 217° | 0 W/m² | - |
| 1777971283 | 19.44° C | 62% | 999.1 hPa | 0 mm | 2.24 m/s, 219° | 0 W/m² | - |
* Rain latest hour (hover to see other rain measurements)
** Current wind speed in m/s (hover to see current wind gust speed)